This is the latest recevied weather packets stored in our database for station/object KS4XQ. If no packets are shown the sender has not sent any weather packets the latest 10 day(s).
| Time | Temp. | Humidity | Pressure | Rain* | Wind** | Luminosity | Snow |
|---|---|---|---|---|---|---|---|
| 1777522499 | 18.89° C | 81% | 1010 hPa | 0 mm | - | - | - |
| 1777522201 | 18.89° C | 80% | 1009.9 hPa | 0 mm | - | - | - |
| 1777521609 | 19.44° C | 80% | 1009.9 hPa | 0 mm | - | - | - |
| 1777520404 | 20° C | 79% | 1010 hPa | 0 mm | - | - | - |
| 1777519204 | 20° C | 77% | 1009.9 hPa | 0 mm | - | - | - |
| 1777518902 | 20.56° C | 78% | 1010.2 hPa | 0 mm | - | - | - |
| 1777517102 | 21.11° C | 73% | 1009.9 hPa | 0 mm | - | - | - |
| 1777515003 | 22.22° C | 70% | 1009.8 hPa | 0 mm | - | - | - |
| 1777514103 | 22.78° C | 68% | 1010 hPa | 0 mm | - | - | - |
| 1777509603 | 23.33° C | 66% | 1009.1 hPa | 0 mm | - | - | - |
| 1777508102 | 23.89° C | 66% | 1008.9 hPa | 0 mm | - | - | - |
| 1777506904 | 24.44° C | 63% | 1008.4 hPa | 0 mm | - | - | - |
| 1777504803 | 25.56° C | 61% | 1008.2 hPa | 0 mm | - | - | - |
| 1777500902 | 26.11° C | 64% | 1008.3 hPa | 0 mm | - | - | - |
| 1777497003 | 26.67° C | 59% | 1008.3 hPa | 0 mm | - | - | - |
| 1777496406 | 26.67° C | 61% | 1008.5 hPa | 0 mm | - | - | - |
| 1777495802 | 26.67° C | 62% | 1008.5 hPa | 0 mm | - | - | - |
| 1777494902 | 26.67° C | 62% | 1008.7 hPa | 0 mm | - | - | - |
| 1777493402 | 26.67° C | 63% | 1009.2 hPa | 0 mm | - | - | - |
| 1777490701 | 26.11° C | 65% | 1009.8 hPa | 0 mm | - | - | - |
| 1777489203 | 26.67° C | 64% | 1010 hPa | 0 mm | - | - | - |
| 1777488302 | 26.67° C | 64% | 1010 hPa | 0 mm | - | - | - |
| 1777487703 | 26.67° C | 66% | 1010.4 hPa | 0 mm | - | - | - |
| 1777487102 | 26.67° C | 65% | 1010.5 hPa | 0 mm | - | - | - |
| 1777484103 | 24.44° C | 73% | 1011.2 hPa | 0 mm | - | - | - |
* Rain latest hour (hover to see other rain measurements)
** Current wind speed in m/s (hover to see current wind gust speed)